Content
SEND FEEDBACK

Daily
Averages
Monthly
Summary
United Kingdom

DUNGENESS, ENGLAND


Home > Europe > United Kingdom > England
Elevation: 10 feet     Latitude: 50 55N     Longitude: 000 58E

WEATHER
 
SELECT A DAY
Number of Records: 69,946;   Date Range: 7/1/96 - 12/24/14
 
SHARE

PRINT THIS DATA

[ ← Previous Day ]
WEATHER ALMANAC - SEPTEMBER 21, 2013
[ Next Day → ]
[ °C ]   °F
Weather ElementAverageHighLow
Temperature63.1 °F64.4 °F (11:20 am)57.2 °F (8:50 am)
Dewpoint57 °F60.8 °F (6:50 pm)53.6 °F (10:20 am)
Humidity80.8 %94 % (8:50 am)72 % (10:20 am)
Barometer30.28 in30.30 in (12:20 pm)30.24 in (8:50 am)
Wind Speed12.6 mph18.4 mph (3:50 pm)
Weather ElementAverage
Visibility6.1 mi
Wind DirectionSSW (210 °)

Weather ElementTotal
Precipitation---
Heating Degree Days4.2 (Base 65)
Growing Degree Days10.8 (Base 50)
Averaged from 21 records on September 21, 2013
WEATHER CONDITIONS BREAKOUT
WIND DIRECTION BREAKOUT
WEATHER BY HOUR - SEPTEMBER 21, 2013
[ °C ]   °F
Local TimeTemperatureDewpointHumidityBarometerVisibilityWind DirectionWind SpeedGust SpeedPrecipitationEventsConditions
8:50 AM57.2 °F55.4 °F94 %30.24 in6.2 miNW (320°)2.3 mphPartly Cloudy
9:20 AM59.0 °F55.4 °F88 %30.27 in6.2 miVariable1.2 mphPartly Cloudy
9:50 AM60.8 °F55.4 °F82 %30.27 in6.2 miVariable1.2 mphPartly Cloudy
10:20 AM62.6 °F53.6 °F72 %30.27 in6.2 miSSW (210°)6.9 mphPartly Cloudy
10:50 AM62.6 °F55.4 °F77 %30.27 in6.2 miSW (220°)10.4 mphPartly Cloudy
11:20 AM64.4 °F55.4 °F73 %30.27 in6.2 miSW (220°)12.7 mphPartly Cloudy
11:50 AM64.4 °F55.4 °F73 %30.27 in6.2 miSW (230°)11.5 mphPartly Cloudy
12:20 PM64.4 °F55.4 °F73 %30.30 in6.2 miSW (230°)12.7 mphPartly Cloudy
12:50 PM64.4 °F55.4 °F73 %30.30 in6.2 miSW (230°)16.1 mphPartly Cloudy
1:20 PM64.4 °F57.2 °F77 %30.30 in6.2 miSW (220°)15.0 mphPartly Cloudy
1:50 PM64.4 °F57.2 °F77 %30.30 in6.2 miSW (230°)16.1 mphPartly Cloudy
2:20 PM64.4 °F57.2 °F77 %30.27 in6.2 miSW (230°)17.3 mphPartly Cloudy
2:50 PM64.4 °F57.2 °F77 %30.30 in6.2 miSW (220°)16.1 mphMostly Cloudy
3:20 PM64.4 °F57.2 °F77 %30.30 in6.2 miSW (230°)16.1 mphMostly Cloudy
3:50 PM64.4 °F59.0 °F83 %30.27 in6.2 miSW (230°)18.4 mphMostly Cloudy
4:20 PM64.4 °F59.0 °F83 %30.27 in6.2 miSW (230°)17.3 mphMostly Cloudy
4:50 PM64.4 °F59.0 °F83 %30.27 in6.2 miSW (230°)17.3 mphMostly Cloudy
5:20 PM62.6 °F59.0 °F88 %30.27 in6.2 miSW (230°)15.0 mphScattered Clouds
5:50 PM62.6 °F59.0 °F88 %30.30 in5.6 miSW (230°)12.7 mphMostly Cloudy
6:20 PM62.6 °F59.0 °F88 %30.30 in5.6 miSW (230°)12.7 mphScattered Clouds
6:50 PM62.6 °F60.8 °F94 %30.30 in5.6 miWSW (240°)15.0 mphScattered Clouds
Hourly data recorded from EGMD, located miles away from Dungeness, England







STORIES FROM OUR PARTNERS